ALOS-2 (39766 NORAD) Tracking and Keplerian Element Data

This shows tracking and keplerian element data for the satellite.

Feedback or suggestion? Click here.




ElementValue
Catalog39766
NameALOS-2
Epoch Orbit24634
Epoch Day349.25026689
Epoch Year2018
RAAN83.7479
Inclination97.9224
Eccentricity0.0001404
Argument of Perigee90.2269
Mean Anonmoly269.9116
Mean Motion14.79469236
Decay Rate-1.84E-06
L11 39766U 14029A 18349.25026689 -.00000184 00000-0 -17726-4 0 9992
L22 39766 97.9224 83.7479 0001404 90.2269 269.9116 14.79469236246345

Live tracking and technical data element details for ALOS-2 (NORAD 39766). ALOS-2 can be tracked NOW for your location showing map with azimuth and elevation plus other details from your city location.

Track the satellite on the map from your city or location and see movement details for azimuth, elevation, latitude, longitude, range, height, and movement on the map or in text.







IsCatalogInMostPopularTable: catalog: 39766, numindb: 89
Update: records affected: 1



GetName: 39766 ALOS-2

Hit Count: updated at: Sun, 16 Dec 2018 03:07:46 GMT